Location: Newark
(35.8833°N, 14.5000°E)
Time: 10:04:07
(UTC+00:00)

Altair - Pass Details

Date: 29 November 2019
Orbit: 1502 x 1682 km, 47.2° (Epoch: 14 December)

Event Time Altitude Azimuth Distance (km) Brightness Sun altitude
Rises 01:55:05 0° 282° (WNW) 4,658 - -47.4°
Reaches altitude 10° 01:58:24 10° 290° (WNW) 3,664 - -46.7°
Maximum altitude 02:06:56 41° 358° (N) 2,065 - -45.0°
Exits shadow 02:09:22 35° 31° (NNE) 2,240 8.4 -44.5°
Drops below altitude 10° 02:15:30 10° 67° (ENE) 3,670 10.0 -43.2°
Sets 02:18:50 0° 74° (ENE) 4,666 10.8 -42.6°
